Location: Ferchesar
(52.6477°N, 12.4298°E)
Time: 06:06:50
(UTC+02:00)

Transit 4A - Pass Details

Date: 06 March 2021
Orbit: 869 x 976 km, 66.8° (Epoch: 12 April)

Event Time Altitude Azimuth Distance (km) Brightness Sun altitude
Rises 19:50:16 0° 314° (NW) 3,571 12.0 -17.6°
Reaches altitude 10° 19:53:31 10° 297° (WNW) 2,602 11.5 -18.1°
Maximum altitude 19:57:33 19° 255° (WSW) 2,007 10.4 -18.7°
Drops below altitude 10° 20:01:31 10° 212° (SSW) 2,545 10.4 -19.2°
Sets 20:04:41 0° 195° (SSW) 3,465 10.9 -19.7°
